When you browse on this site, cookies collect data to enhance your experience and personalize the content and advertising you see.
Visit our Privacy Policy to learn more. By continuing to use the site, you agree to this use of cookies and data.
  • In Hungary
  • List of Countries
  • For 7 days
  • Water Temperature
  • Satellite Maps
  • Weather Map
  • News
  • Weather Widgets
  • user-avatar
    Login

    Hourly Weather Ialysos

    Today, 16 December, Sunday

    Time Temperature Precipitation Wind Pressure Humidity
    00:00 +11°C° 0.9 mm 8 mps 758 mmHg 77%
    01:00 +11°C° 0.9 mm 8 mps 758 mmHg 78%
    02:00 +11°C° 0 mm 8 mps 757 mmHg 82%
    03:00 +11°C° 1.3 mm 8 mps 757 mmHg 84%
    04:00 +11°C° 1.3 mm 8 mps 756 mmHg 86%
    05:00 +11°C° 1.3 mm 8 mps 756 mmHg 88%
    06:00 +11°C° 1.3 mm 8 mps 756 mmHg 88%
    07:00 +11°C° 1.3 mm 9 mps 756 mmHg 88%
    08:00 +11°C° 1.3 mm 9 mps 755 mmHg 88%
    09:00 +13°C° 1.2 mm 9 mps 755 mmHg 81%
    10:00 +15°C° 1.2 mm 9 mps 755 mmHg 74%
    11:00 +16°C° 1.2 mm 9 mps 755 mmHg 67%
    12:00 +17°C° 1 mm 9 mps 755 mmHg 68%
    13:00 +17°C° 1 mm 9 mps 754 mmHg 69%
    14:00 +17°C° 1 mm 8 mps 754 mmHg 70%
    15:00 +16°C° 1 mm 8 mps 754 mmHg 77%
    16:00 +14°C° 1 mm 7 mps 754 mmHg 85%
    17:00 +13°C° 1 mm 6 mps 754 mmHg 92%
    18:00 +13°C° 1.5 mm 6 mps 754 mmHg 93%
    19:00 +13°C° 1.5 mm 5 mps 754 mmHg 93%
    20:00 +13°C° 1.5 mm 4 mps 754 mmHg 94%
    21:00 +13°C° 0.9 mm 4 mps 755 mmHg 93%
    22:00 +13°C° 0.9 mm 4 mps 755 mmHg 91%
    23:00 +12°C° 0.9 mm 3 mps 755 mmHg 90%

    Tomorrow, 17 December, Monday

    Time Temperature Precipitation Wind Pressure Humidity
    00:00 +12°C° 0.6 mm 3 mps 755 mmHg 89%
    01:00 +12°C° 0.6 mm 3 mps 755 mmHg 88%
    02:00 +12°C° 0.6 mm 3 mps 755 mmHg 87%
    03:00 +12°C° 0.4 mm 2 mps 755 mmHg 87%
    04:00 +12°C° 0.4 mm 2 mps 755 mmHg 87%
    05:00 +12°C° 0.4 mm 2 mps 755 mmHg 86%
    06:00 +12°C° 0.2 mm 2 mps 755 mmHg 85%
    07:00 +12°C° 0.2 mm 2 mps 755 mmHg 84%
    08:00 +12°C° 0.2 mm 2 mps 756 mmHg 82%
    09:00 +14°C° 0 mm 2 mps 756 mmHg 75%
    10:00 +16°C° 0 mm 1 mps 756 mmHg 68%
    11:00 +19°C° 0 mm 1 mps 756 mmHg 61%
    12:00 +19°C° 0 mm 1 mps 756 mmHg 61%
    13:00 +19°C° 0 mm 1 mps 756 mmHg 60%
    14:00 +18°C° 0 mm 2 mps 756 mmHg 59%
    15:00 +17°C° 0 mm 2 mps 756 mmHg 66%
    16:00 +15°C° 0 mm 2 mps 756 mmHg 74%
    17:00 +14°C° 0 mm 2 mps 756 mmHg 81%
    18:00 +14°C° 0.1 mm 2 mps 756 mmHg 83%
    19:00 +14°C° 0.1 mm 2 mps 757 mmHg 85%
    20:00 +13°C° 0.1 mm 2 mps 757 mmHg 87%
    21:00 +13°C° 0 mm 2 mps 757 mmHg 88%
    22:00 +13°C° 0 mm 2 mps 757 mmHg 89%
    23:00 +12°C° 0 mm 2 mps 757 mmHg 91%

    Day after tomorrow, 18 December, Tuesday

    Time Temperature Precipitation Wind Pressure Humidity
    00:00 +12°C° 0.1 mm 2 mps 757 mmHg 90%
    01:00 +12°C° 0.1 mm 2 mps 757 mmHg 90%
    02:00 +10°C° 0.1 mm 2 mps 757 mmHg 90%
    03:00 +10°C° 0 mm 3 mps 757 mmHg 87%
    04:00 +10°C° 0 mm 4 mps 756 mmHg 84%
    05:00 +9°C° 0 mm 5 mps 756 mmHg 81%
    06:00 +10°C° 0.4 mm 6 mps 756 mmHg 81%
    07:00 +10°C° 0.4 mm 7 mps 756 mmHg 81%
    08:00 +11°C° 0.4 mm 8 mps 756 mmHg 81%
    09:00 +11°C° 2.6 mm 8 mps 756 mmHg 86%
    10:00 +11°C° 2.6 mm 8 mps 755 mmHg 91%
    11:00 +12°C° 2.6 mm 9 mps 755 mmHg 96%
    12:00 +12°C° 1.5 mm 8 mps 755 mmHg 94%
    13:00 +12°C° 1.5 mm 7 mps 754 mmHg 93%
    14:00 +14°C° 1.5 mm 7 mps 754 mmHg 91%
    15:00 +13°C° 0.9 mm 6 mps 754 mmHg 90%
    16:00 +12°C° 0.9 mm 5 mps 754 mmHg 90%
    17:00 +11°C° 0.9 mm 4 mps 754 mmHg 89%
    18:00 +11°C° 0.8 mm 4 mps 754 mmHg 89%
    19:00 +11°C° 0.8 mm 3 mps 754 mmHg 88%
    20:00 +11°C° 0.8 mm 3 mps 755 mmHg 88%
    21:00 +11°C° 1.2 mm 3 mps 755 mmHg 88%
    22:00 +12°C° 1.2 mm 2 mps 755 mmHg 87%
    23:00 +10°C° 1.2 mm 2 mps 755 mmHg 87%

    19 December, Wednesday

    Time Temperature Precipitation Wind Pressure Humidity
    00:00 +10°C° 1 mm 2 mps 755 mmHg 85%
    01:00 +10°C° 1 mm 3 mps 755 mmHg 84%
    02:00 +10°C° 1 mm 3 mps 754 mmHg 83%
    03:00 +10°C° 0.8 mm 3 mps 754 mmHg 82%
    04:00 +10°C° 0.8 mm 3 mps 754 mmHg 80%
    05:00 +9°C° 0.8 mm 3 mps 754 mmHg 79%
    06:00 +10°C° 0.5 mm 3 mps 755 mmHg 79%
    07:00 +10°C° 0.5 mm 3 mps 755 mmHg 78%
    08:00 +10°C° 0.5 mm 4 mps 755 mmHg 78%
    09:00 +12°C° 0 mm 4 mps 756 mmHg 72%
    10:00 +14°C° 0 mm 5 mps 756 mmHg 65%
    11:00 +16°C° 0 mm 5 mps 757 mmHg 59%
    12:00 +16°C° 0 mm 6 mps 757 mmHg 57%
    13:00 +16°C° 0 mm 6 mps 757 mmHg 56%
    14:00 +17°C° 0 mm 7 mps 757 mmHg 54%
    15:00 +15°C° 0 mm 7 mps 757 mmHg 59%
    16:00 +14°C° 0 mm 7 mps 757 mmHg 64%
    17:00 +11°C° 0 mm 8 mps 758 mmHg 69%
    18:00 +10°C° 0 mm 8 mps 758 mmHg 71%
    19:00 +10°C° 0 mm 7 mps 759 mmHg 74%
    20:00 +9°C° 0 mm 7 mps 759 mmHg 77%
    21:00 +9°C° 0 mm 7 mps 760 mmHg 78%
    22:00 +9°C° 0 mm 7 mps 760 mmHg 79%
    23:00 +8°C° 0 mm 7 mps 760 mmHg 80%

    20 December, Thursday

    Time Temperature Precipitation Wind Pressure Humidity
    00:00 +8°C° 0 mm 7 mps 760 mmHg 80%
    01:00 +8°C° 0 mm 7 mps 760 mmHg 80%
    02:00 +8°C° 0 mm 7 mps 760 mmHg 80%
    03:00 +6°C° 0 mm 7 mps 761 mmHg 80%
    04:00 +6°C° 0 mm 7 mps 761 mmHg 79%
    05:00 +6°C° 0 mm 8 mps 761 mmHg 79%
    06:00 +6°C° 0 mm 7 mps 761 mmHg 78%
    07:00 +6°C° 0 mm 7 mps 761 mmHg 77%
    08:00 +6°C° 0 mm 7 mps 762 mmHg 75%
    09:00 +9°C° 0 mm 7 mps 762 mmHg 67%
    10:00 +11°C° 0 mm 7 mps 762 mmHg 59%
    11:00 +14°C° 0 mm 7 mps 762 mmHg 51%
    12:00 +15°C° 0 mm 7 mps 762 mmHg 47%
    13:00 +16°C° 0 mm 7 mps 762 mmHg 43%
    14:00 +16°C° 0 mm 7 mps 761 mmHg 38%
    15:00 +14°C° 0 mm 7 mps 761 mmHg 44%
    16:00 +12°C° 0 mm 7 mps 762 mmHg 49%
    17:00 +10°C° 0 mm 7 mps 762 mmHg 55%
    18:00 +9°C° 0 mm 7 mps 762 mmHg 58%
    19:00 +8°C° 0 mm 7 mps 762 mmHg 62%
    20:00 +6°C° 0 mm 7 mps 763 mmHg 65%
    21:00 +7°C° 0 mm 6 mps 763 mmHg 65%
    22:00 +5°C° 0 mm 6 mps 763 mmHg 66%
    23:00 +6°C° 0 mm 5 mps 763 mmHg 66%

    21 December, Friday

    Time Temperature Precipitation Wind Pressure Humidity
    00:00 +6°C° 0 mm 5 mps 763 mmHg 65%
    01:00 +6°C° 0 mm 5 mps 763 mmHg 64%
    02:00 +6°C° 0 mm 5 mps 763 mmHg 63%
    03:00 +5°C° 0 mm 4 mps 762 mmHg 61%
    04:00 +5°C° 0 mm 4 mps 762 mmHg 60%
    05:00 +5°C° 0 mm 4 mps 762 mmHg 58%
    06:00 +6°C° 0 mm 4 mps 762 mmHg 56%
    07:00 +7°C° 0 mm 3 mps 762 mmHg 54%
    08:00 +7°C° 0 mm 3 mps 763 mmHg 52%
    09:00 +10°C° 0 mm 3 mps 763 mmHg 45%
    10:00 +13°C° 0 mm 2 mps 763 mmHg 38%
    11:00 +15°C° 0 mm 2 mps 763 mmHg 31%
    12:00 +15°C° 0 mm 2 mps 762 mmHg 33%
    13:00 +16°C° 0 mm 2 mps 762 mmHg 34%
    14:00 +16°C° 0 mm 2 mps 761 mmHg 35%
    15:00 +14°C° 0 mm 2 mps 761 mmHg 43%
    16:00 +12°C° 0 mm 2 mps 762 mmHg 50%
    17:00 +9°C° 0 mm 3 mps 762 mmHg 58%
    18:00 +9°C° 0 mm 3 mps 762 mmHg 60%
    19:00 +8°C° 0 mm 3 mps 762 mmHg 63%
    20:00 +8°C° 0 mm 3 mps 762 mmHg 65%
    21:00 +8°C° 0 mm 2 mps 762 mmHg 64%
    22:00 +8°C° 0 mm 2 mps 761 mmHg 63%
    23:00 +8°C° 0 mm 2 mps 761 mmHg 62%
    Show more